TimeAEST,TemperatureF,Dew PointF,Humidity,Sea Level PressureIn,VisibilityMPH,Wind Direction,Wind SpeedMPH,Gust SpeedMPH,PrecipitationIn,Events,Conditions,WindDirDegrees,DateUTC
12:00 AM,73,64,67,29.90,,SSE,5.8,,,,,160,2012-11-08 14:00:00
12:00 AM,73.4,64.4,73,29.89,6.2,SSE,5.8,-,N/A,,Partly Cloudy,150,2012-11-08 14:00:00
12:30 AM,71.6,64.4,78,29.89,6.2,SSE,5.8,-,N/A,,Partly Cloudy,150,2012-11-08 14:30:00
1:00 AM,67,64,88,29.89,,Calm,Calm,,,,,,2012-11-08 15:00:00
1:00 AM,68.0,64.4,88,29.89,6.2,Calm,Calm,-,N/A,,Partly Cloudy,0,2012-11-08 15:00:00
1:30 AM,68.0,64.4,88,29.86,6.2,Calm,Calm,-,N/A,,Partly Cloudy,0,2012-11-08 15:30:00
2:00 AM,66.2,64.4,94,29.86,6.2,Calm,Calm,-,N/A,,Scattered Clouds,0,2012-11-08 16:00:00
2:30 AM,68.0,64.4,88,29.86,6.2,WNW,1.2,-,N/A,,Scattered Clouds,300,2012-11-08 16:30:00
3:00 AM,69,64,81,29.86,,SE,9.2,,,,,130,2012-11-08 17:00:00
3:00 AM,69.8,64.4,83,29.86,6.2,SE,9.2,-,N/A,,Partly Cloudy,130,2012-11-08 17:00:00
3:30 AM,69.8,64.4,83,29.86,6.2,SE,10.4,-,N/A,,Partly Cloudy,140,2012-11-08 17:30:00
4:00 AM,69,65,81,29.87,,West,3.5,,,,,270,2012-11-08 18:00:00
4:00 AM,68.0,64.4,88,29.86,6.2,West,3.5,-,N/A,,Partly Cloudy,270,2012-11-08 18:00:00
4:30 AM,68.0,64.4,88,29.86,6.2,Calm,Calm,-,N/A,,Partly Cloudy,0,2012-11-08 18:30:00
5:00 AM,68.0,64.4,88,29.86,6.2,WNW,1.2,-,N/A,,Partly Cloudy,300,2012-11-08 19:00:00
5:30 AM,69.8,64.4,83,29.89,6.2,SSE,3.5,-,N/A,,Scattered Clouds,160,2012-11-08 19:30:00
6:00 AM,70,64,77,29.90,19,SE,11.5,,,,Partly Cloudy,130,2012-11-08 20:00:00
6:00 AM,69.8,64.4,83,29.89,6.2,SE,11.5,-,N/A,,Scattered Clouds,130,2012-11-08 20:00:00
6:30 AM,71.6,64.4,78,29.89,6.2,SE,9.2,-,N/A,,Scattered Clouds,130,2012-11-08 20:30:00
7:00 AM,75,65,62,29.92,,SE,6.9,,,,,140,2012-11-08 21:00:00
7:00 AM,75.2,64.4,69,29.92,6.2,SE,6.9,-,N/A,,Scattered Clouds,140,2012-11-08 21:00:00
7:30 AM,75.2,64.4,69,29.92,6.2,SE,12.7,-,N/A,,Mostly Cloudy,130,2012-11-08 21:30:00
8:00 AM,77.0,64.4,65,29.92,6.2,SE,9.2,-,N/A,,Mostly Cloudy,140,2012-11-08 22:00:00
8:30 AM,78.8,64.4,61,29.92,6.2,SSE,8.1,-,N/A,,Mostly Cloudy,160,2012-11-08 22:30:00
9:00 AM,80,66,53,29.94,19,South,6.9,,,,Mostly Cloudy,180,2012-11-08 23:00:00
9:00 AM,80.6,66.2,61,29.95,6.2,South,6.9,-,N/A,,Mostly Cloudy,180,2012-11-08 23:00:00
9:30 AM,80.6,66.2,61,29.92,6.2,South,6.9,-,N/A,,Mostly Cloudy,170,2012-11-08 23:30:00
10:00 AM,81,67,53,29.95,,SE,6.9,,,,,130,2012-11-09 00:00:00
10:00 AM,80.6,66.2,61,29.95,6.2,SE,6.9,-,N/A,,Mostly Cloudy,130,2012-11-09 00:00:00
10:30 AM,78.8,68.0,69,29.95,6.2,SE,6.9,-,N/A,Rain,Light Rain Showers,140,2012-11-09 00:30:00
11:00 AM,78.8,69.8,74,29.95,6.2,ESE,5.8,-,N/A,Rain,Light Rain Showers,120,2012-11-09 01:00:00
11:30 AM,82.4,68.0,62,29.92,6.2,East,8.1,-,N/A,,Mostly Cloudy,90,2012-11-09 01:30:00
12:00 PM,82,69,57,29.93,19,East,11.5,,,Rain,Light Rain Showers,80,2012-11-09 02:00:00
12:00 PM,82.4,69.8,66,29.92,6.2,East,11.5,-,N/A,,Mostly Cloudy,80,2012-11-09 02:00:00
12:30 PM,84.2,68.0,58,29.92,6.2,ENE,11.5,-,N/A,,Scattered Clouds,70,2012-11-09 02:30:00
1:00 PM,82,68,53,29.91,,ENE,13.8,,,,,70,2012-11-09 03:00:00
1:00 PM,82.4,68.0,62,29.89,6.2,ENE,13.8,-,N/A,,Scattered Clouds,70,2012-11-09 03:00:00
1:30 PM,82.4,68.0,62,29.89,6.2,ENE,12.7,-,N/A,,Scattered Clouds,60,2012-11-09 03:30:00
2:00 PM,82.4,68.0,62,29.86,6.2,ENE,12.7,-,N/A,,Mostly Cloudy,60,2012-11-09 04:00:00
2:30 PM,82.4,68.0,62,29.86,6.2,ENE,11.5,-,N/A,,Mostly Cloudy,60,2012-11-09 04:30:00
3:00 PM,82,66,50,29.87,19,ENE,11.5,,,,Partly Cloudy,60,2012-11-09 05:00:00
3:30 PM,80.6,68.0,65,29.86,6.2,ENE,10.4,-,N/A,,Mostly Cloudy,60,2012-11-09 05:30:00
4:00 PM,81,67,55,29.86,,ENE,10.4,,,,,70,2012-11-09 06:00:00
4:00 PM,80.6,68.0,65,29.86,6.2,ENE,10.4,-,N/A,,Mostly Cloudy,70,2012-11-09 06:00:00
4:30 PM,82.4,64.4,54,29.86,6.2,ESE,10.4,-,N/A,,Mostly Cloudy,110,2012-11-09 06:30:00
5:00 PM,80.6,64.4,58,29.86,6.2,ESE,10.4,-,N/A,,Mostly Cloudy,110,2012-11-09 07:00:00
5:30 PM,80.6,64.4,58,29.86,6.2,ESE,8.1,-,N/A,,Mostly Cloudy,110,2012-11-09 07:30:00
6:00 PM,81,63,44,29.88,,ESE,8.1,,,,Overcast,110,2012-11-09 08:00:00
6:00 PM,80.6,62.6,54,29.86,6.2,ESE,8.1,-,N/A,,Mostly Cloudy,110,2012-11-09 08:00:00
6:30 PM,78.8,64.4,61,29.89,6.2,ESE,9.2,-,N/A,,Mostly Cloudy,110,2012-11-09 08:30:00
7:00 PM,79,64,51,29.92,,ESE,8.1,,,,,110,2012-11-09 09:00:00
7:00 PM,78.8,64.4,61,29.89,6.2,ESE,8.1,-,N/A,,Mostly Cloudy,110,2012-11-09 09:00:00
7:30 PM,77.0,64.4,65,29.92,6.2,SSE,3.5,-,N/A,,Mostly Cloudy,160,2012-11-09 09:30:00
8:00 PM,75.2,66.2,73,29.92,6.2,Calm,Calm,-,N/A,,Mostly Cloudy,0,2012-11-09 10:00:00
8:30 PM,75.2,64.4,69,29.95,6.2,South,1.2,-,N/A,,Mostly Cloudy,170,2012-11-09 10:30:00
9:00 PM,75,65,65,29.95,,SE,3.5,,,,,140,2012-11-09 11:00:00
9:00 PM,75.2,66.2,73,29.95,6.2,SE,3.5,-,N/A,,Scattered Clouds,140,2012-11-09 11:00:00
9:30 PM,73.4,66.2,78,29.95,6.2,SSE,2.3,-,N/A,,Mostly Cloudy,150,2012-11-09 11:30:00
10:00 PM,74,66,70,29.96,,SSE,4.6,,,,,160,2012-11-09 12:00:00
10:00 PM,75.2,66.2,73,29.95,6.2,SSE,4.6,-,N/A,,Scattered Clouds,160,2012-11-09 12:00:00
10:30 PM,73.4,66.2,78,29.95,6.2,Calm,Calm,-,N/A,,Scattered Clouds,0,2012-11-09 12:30:00
11:00 PM,73.4,64.4,73,29.95,6.2,SE,6.9,-,N/A,,Partly Cloudy,140,2012-11-09 13:00:00
11:30 PM,73.4,64.4,73,29.92,6.2,SSE,6.9,-,N/A,,Partly Cloudy,150,2012-11-09 13:30:00